Regional Weather Roundup
Issued by NWS

Home | Current Version | Previous Version | Text Only | Print | Product List | Glossary Off
Versions: 1 2 3 4 5 6 7 8 9 10 11 12 13 14 15 16 17 18 19 20 21 22 23 24 25 26 27

000
ASUS45 KCYS 041010
RWRWY

WYOMING REGIONAL WEATHER ROUNDUP
NATIONAL WEATHER SERVICE CHEYENNE WY
300 AM MST SUN DEC 04 2016

NOTE:  "FAIR" INDICATES FEW OR NO CLOUDS BELOW 12,000 FEET
WITH NO SIGNIFICANT WEATHER AND/OR OBSTRUCTIONS TO VISIBILITY.

WYZ001-041100-
YELLOWSTONE NATIONAL PARK

CITY           SKY/WX    TMP DP  RH WIND       PRES   REMARKS
LK YELLOWSTONE   N/A     19  17  92 VRB5      29.98F WCI  12
W YELLOWSTONE  NOT AVBL

$$
WYZ002>013-054>058-071-098>099-041100-
NORTHERN WYOMING

CITY           SKY/WX    TMP DP  RH WIND       PRES   REMARKS
JACKSON        CLOUDY    27  23  86 S15       30.04S WCI  15
CODY           MOCLDY    35  15  44 NW8       29.92S WCI  29
GREYBULL       CLOUDY    24  17  74 SE3       29.96S
WORLAND        CLOUDY    20  16  84 SW3       29.95F
SHERIDAN       FAIR      29  18  63 CALM      29.90F
BUFFALO        FAIR      28   9  44 SW7       29.91S WCI  21
GILLETTE       CLOUDY    27  21  78 SW10      29.92F WCI  17
HULETT         CLOUDY    28  21  74 SW6       29.91F WCI  22
NEWCASTLE      FAIR      27  19  74 N6        29.95S WCI  20

$$
WYZ014>020-022>026-101>103-041100-
CENTRAL WYOMING

CITY           SKY/WX    TMP DP  RH WIND       PRES   REMARKS
BIG PINEY      FAIR       4   1  88 NE3       30.07S
PINEDALE       FLURRIES  10   9  92 CALM      30.08S
DUBOIS         FAIR      23  12  63 NW21G33   29.91R WCI   8
LANDER         FAIR      20   8  60 CALM      29.95F
RIVERTON       FAIR      21   9  59 SW13      29.97S WCI   9
CASPER         FAIR      22  11  62 SW15      29.98S WCI   9
DOUGLAS        FAIR      17  10  74 N7        29.99S WCI   8

$$
WYZ021-027>030-104>119-041100-
SOUTHERN WYOMING

CITY           SKY/WX    TMP DP  RH WIND       PRES   REMARKS
EVANSTON       FAIR      18  12  77 S9        30.12F WCI   7
FORT BRIDGER   FAIR      22  15  74 W15       30.13F WCI   9
ROCK SPRINGS   MOCLDY    22  15  75 W23       30.09F WCI   6
DIXON          FAIR      20  12  71 NW6       30.18S WCI  13
RAWLINS        MOCLDY    21  12  68 W10G23    30.06R WCI  10
SARATOGA       PTSUNNY   23  14  68 SW13      30.08F WCI  11
LARAMIE        FAIR      17   8  67 SW14      29.98  WCI   3
CHEYENNE       FAIR      26   8  46 W8G21     29.99F WCI  18
TORRINGTON     FAIR      29  13  51 W12       29.99S WCI  19
PINE BLUFFS    FAIR      19  12  73 W3        30.02F

$$




USA.gov is the U.S. government's official web portal to all federal, state and local government web resources and services.